Regional Weather Roundup
Issued by NWS

Home | Current Version | Previous Version | Graphics & Text | Print | Product List | Glossary Off
Versions: 1 2 3 4 5 6 7 8 9 10 11 12 13 14 15 16 17 18 19 20 21 22 23 24 25 26 27 28 29 30 31 32 33 34 35 36 37 38 39 40 41 42 43 44 45 46 47 48 49 50

000
ASUS43 KMKX 210211
RWRWI

WISCONSIN REGIONAL WEATHER ROUNDUP
NATIONAL WEATHER SERVICE MILWAUKEE/SULLIVAN WI
800 PM CST THU NOV 20 2014

NOTE: "FAIR" INDICATES FEW OR NO CLOUDS BELOW 12,000 FEET WITH NO
SIGNIFICANT WEATHER AND/OR OBSTRUCTIONS TO VISIBILITY.

WIZ001-002-006>008-014>016-023>028-210300-
NORTHWEST WISCONSIN

CITY           SKY/WX    TMP DP  RH WIND       PRES   REMARKS
SUPERIOR ARPT  CLEAR      5  -3  68 SW3       30.19R
ASHLAND        CLEAR      6  -3  66 SW8       30.17R WCI  -7
HAYWARD        CLEAR     -4  -8  83 CALM      30.15R
SIREN          PTCLDY    -4  -8  84 CALM      30.19R
CUMBERLAND     FAIR       5  -2  72 W3        30.16S
RICE LAKE      FAIR       2  -4  75 CALM      30.19R
CHETEK         FAIR       0  -4  82 CALM      30.18S
LADYSMITH      CLEAR      7  -1  69 W5        30.17R WCI  -2
EAU CLAIRE     CLEAR      5  -3  69 SW3       30.20R
MENOMONIE      CLEAR     10  -1  61 W5        30.21R WCI   1
NEW RICHMOND   PTCLDY     2  -4  75 SW3       30.20R
OSCEOLA        PTCLDY     0  -6  77 CALM      30.23S
$$

WIZ003>005-009-010-017-018-210300-
NORTH CENTRAL WISCONSIN

CITY           SKY/WX    TMP DP  RH WIND       PRES   REMARKS
MANITOWISH WTR CLOUDY     9   2  75 W9        30.07R WCI  -5
ARBOR VITAE    MOCLDY    11   4  71 NW13      30.07R WCI  -4
WOODRUFF       MOCLDY    11   4  71 NW13      30.07R WCI  -4
RHINELANDER    CLOUDY     8   0  69 W14       30.07R WCI  -8
EAGLE RIVER    FLURRIES   9   2  74 W8        30.05R WCI  -3
LAND O LAKES   LGT SNOW  10   6  84 W7        30.05R WCI  -2
PHILLIPS       PTCLDY    -7 -10  87 CALM      30.11R
TOMAHAWK       MOCLDY    -2  -5  85 CALM      30.12R
MEDFORD        CLEAR      4  -3  71 W3        30.12R
MERRILL        CLEAR     -1  -4  87 CALM      30.13R
$$

WIZ029-030-035-036-043>047-210300-
CENTRAL WISCONSIN

CITY           SKY/WX    TMP DP  RH WIND       PRES   REMARKS
WAUSAU         CLEAR      8  -1  66 NW6       30.13R WCI  -2
MOSINEE        CLEAR      7   0  72 W8        30.15R WCI  -6
MARSHFIELD     CLEAR      6  -4  63 W7        30.15R WCI  -6
STEVENS POINT  CLEAR      8  -2  64 W5        30.17R WCI  -1
WAUPACA        CLEAR     13   1  57 W8        30.19R WCI   2
WAUTOMA        CLEAR      9  -3  58 NW6       30.20R WCI  -1
WISC RAPIDS    CLEAR      8  -4  58 W5        30.20R WCI   0
CAMP DOUGLAS   CLEAR      2  -2  82 W3        30.21R
$$

WIZ011>013-019>022-031-037>040-048>050-210300-
NORTHEAST WISCONSIN

CITY           SKY/WX    TMP DP  RH WIND       PRES   REMARKS
ANTIGO         CLOUDY     4  -2  74 W8        30.09R WCI  -9
SHAWANO        CLEAR     11   0  60 CALM      30.17R
OCONTO         CLEAR     10   0  65 W6        30.17R WCI   0
STURGEON BAY   PTCLDY    12   0  57 NW15G24   30.14R WCI  -4
GREEN BAY      CLEAR     11   1  64 W9        30.18R WCI  -2
MANITOWOC      FAIR      12   4  70 NW10      30.17R WCI  -1
APPLETON       MOCLDY     9   0  66 W7        30.17R WCI  -3
CLINTONVILLE   MOCLDY    10   1  67 NW6       30.17R WCI   1
OSHKOSH        CLEAR     11   0  61 W6        30.18R WCI   1
$$

WIZ032>034-041-042-053>061-210300-
SOUTHWEST WISCONSIN

CITY           SKY/WX    TMP DP  RH WIND       PRES   REMARKS
LA CROSSE      CLEAR     14   2  58 W5        30.24R WCI   6
SPARTA         CLEAR      4   0  83 CALM      30.23R
VIROQUA        CLEAR     11   2  66 W3        30.19R
BOSCOBEL       CLEAR     14   4  64 S5        30.26R WCI   6
PRAIRIE DU CHI CLEAR     12   3  66 W7        30.26S WCI   2
PLATTEVILLE    FAIR      11   4  71 W6        30.24R WCI   2
$$

WIZ056-057-062-063-064-067-068-210300-
SOUTH CENTRAL WISCONSIN

CITY           SKY/WX    TMP DP  RH WIND       PRES   REMARKS
REEDSBURG      FAIR      13   1  59 W3        30.21R
BARABOO/DELLS  FAIR      10  -2  57 CALM      30.21R
LONE ROCK      CLEAR     19   1  45 W12       30.24R WCI   7
MINERAL POINT  CLEAR     12   3  67 W3        30.21R
MADISON        CLEAR     13  -1  54 W5        30.21R WCI   5
MIDDLETON      CLEAR     13   0  55 W5        30.21R WCI   5
WATERTOWN      CLEAR     14   1  55 W8        30.19R WCI   3
MONROE         CLEAR     14   9  79 W9        30.20R WCI   2
JANESVILLE     CLEAR     16   7  67 W6        30.21R WCI   7
$$

WIZ051-052-058>065-066-070>072-210300-
SOUTHEAST WISCONSIN

CITY           SKY/WX    TMP DP  RH WIND       PRES   REMARKS
MILWAUKEE      CLEAR     18  -1  43 NW13G22   30.19R WCI   5
WAUKESHA       CLEAR     14   1  57 NW14      30.18R WCI  -1
MILWAUKEE/TIMM CLEAR     16  -2  45 NW10      30.20R WCI   3
RACINE         CLEAR     18   0  45 NW7       30.21R WCI   9
BURLINGTON     CLEAR     13   0  55 W7        30.20R WCI   3
KENOSHA        CLEAR     15   4  61 W8        30.19R WCI   4
FOND DU LAC    CLEAR     10  -1  61 W5        30.19R WCI   2
SHEBOYGAN      MOCLDY    15   1  53 NW12      30.17R WCI   2
WEST BEND      FAIR      14   1  57 NW7       30.18R WCI   4
JUNEAU         CLEAR     12  -1  56 NW5       30.20R WCI   4
$$

LSZ147-162-210300-
LAKE SUPERIOR

STATION/POSITION TIME  TEMP    WIND        PRES    WAVE
                       AIR SEA DIR/SP/G            HT/PER
                 (UTC) (F)     (DEG/KT/KT) (MB)    (FT/S)
DEVILS ISLAND    0200   16     300/ 21/ 25 1022.0R
PORT WING        0100   17     280/ 16/ 23 1021.3
SAXON HARBOR     0120   14     220/  6/ 11 1021.0R
$$

LMZ867-665-643>646-210300-
LAKE MICHIGAN

STATION/POSITION TIME  TEMP    WIND        PRES    WAVE
                       AIR SEA DIR/SP/G            HT/PER
                 (UTC) (F)     (DEG/KT/KT) (MB)    (FT/S)
CHAMBERS ISLAND  0100   15     280/  9/ 20 1020.0R
N MID LAKE BUOY  0150   20 42  310/ 21/ 29 1020.4R   5/ 5
NORTHPORT PIER   0103   17     290/ 11     1019.3R
SISTER BAY       0143          310/ 24/ 30   N/A
ALGOMA LAKESHORE 0013          340/  9/ 13   N/A
KEWAUNEE LAKESHO 0100   13     280/  7/ 11 1019.6R
SHEBOYGAN LAKESH 0200   16 34  290/ 11/ 14 1023.5R
PORT WASHINGTON  0140   16     310/  4/  8 1023.0R
ATWATER BUOY     0100   24     290/ 14/ 17 1021.4R
MILWAUKEE LAKESH 0100   20     300/ 10/ 15   N/A
S MID LAKE BUOY  0150   25 43  290/ 23/ 27 1022.0R   6/ 6
KENOSHA   LAKESH 0200   18     290/  8/ 11 1022.7R
$$

TC  - TEMPERATURE IN CELSIUS
VSB - VISIBILITY IN STATUTE MILES
WCI - WIND CHILL INDEX
HX  - HEAT INDEX



USA.gov is the U.S. government's official web portal to all federal, state and local government web resources and services.